COOK73 OYSQ-HTMW

Flight info

Callsign COOK73
Flight time N/A
Altitude 34000
Route DCT
Aircraft C25C/M-SDE2E3FGHRWXY/LB1

Departure

Time 2026-05-07 18:11
Airport Socotra Airport (OYSQ)

Arrival

Time N/A
Airport Mwanza International Airport (HTMW)
Time Latitude Longitude Altitude Speed Heading
2026-05-07 18:00 12.62769 53.90757 79 ft 0 kts 183°
2026-05-07 18:03 12.62781 53.90757 75 ft 6 kts 183°
2026-05-07 18:03 12.62822 53.90760 78 ft 6 kts 190°
2026-05-07 18:03 12.62852 53.90780 75 ft 0 kts 212°
2026-05-07 18:05 12.62851 53.90779 75 ft 1 kts 212°
2026-05-07 18:05 12.62843 53.90764 74 ft 5 kts 273°
2026-05-07 18:05 12.62863 53.90726 76 ft 7 kts 300°
2026-05-07 18:05 12.62892 53.90670 76 ft 10 kts 296°
2026-05-07 18:06 12.62924 53.90603 77 ft 10 kts 297°
2026-05-07 18:06 12.62961 53.90546 77 ft 10 kts 327°
2026-05-07 18:06 12.63032 53.90551 73 ft 12 kts 25°
2026-05-07 18:06 12.63121 53.90594 70 ft 16 kts 25°
2026-05-07 18:07 12.63233 53.90649 67 ft 20 kts 25°
2026-05-07 18:07 12.63366 53.90716 56 ft 23 kts 26°
2026-05-07 18:07 12.63519 53.90793 49 ft 26 kts 26°
2026-05-07 18:07 12.63689 53.90877 41 ft 29 kts 26°
2026-05-07 18:08 12.63875 53.90971 41 ft 30 kts 26°
2026-05-07 18:08 12.64066 53.91066 28 ft 31 kts 26°
2026-05-07 18:08 12.64224 53.91144 24 ft 23 kts 26°
2026-05-07 18:08 12.64367 53.91214 17 ft 18 kts 26°
2026-05-07 18:09 12.64470 53.91282 11 ft 17 kts 34°
2026-05-07 18:09 12.64517 53.91291 10 ft 4 kts 243°
2026-05-07 18:09 12.64508 53.91284 10 ft 0 kts 209°
2026-05-07 18:10 12.64498 53.91278 11 ft 10 kts 208°
2026-05-07 18:11 12.64194 53.91125 23 ft 92 kts 206°
2026-05-07 18:11 12.63719 53.90893 221 ft 122 kts 204°
2026-05-07 18:11 12.62580 53.90478 910 ft 153 kts 186°
2026-05-07 18:11 12.61459 53.90187 1275 ft 185 kts 216°
2026-05-07 18:12 12.60542 53.89136 1732 ft 208 kts 231°
2026-05-07 18:12 12.59699 53.87959 2567 ft 207 kts 234°
2026-05-07 18:12 12.58885 53.86698 3330 ft 211 kts 235°
2026-05-07 18:12 12.58078 53.85449 4042 ft 215 kts 236°
2026-05-07 18:13 12.57228 53.84156 4749 ft 217 kts 236°
2026-05-07 18:13 12.56389 53.82880 5414 ft 221 kts 236°
2026-05-07 18:13 12.55525 53.81567 6084 ft 224 kts 236°
2026-05-07 18:13 12.54651 53.80236 6709 ft 227 kts 237°
2026-05-07 18:14 12.53762 53.78884 7303 ft 230 kts 237°
2026-05-07 18:14 12.52860 53.77512 7897 ft 234 kts 237°
2026-05-07 18:14 12.51948 53.76126 8479 ft 236 kts 237°
2026-05-07 18:14 12.51019 53.74716 9063 ft 240 kts 238°
2026-05-07 18:15 12.50081 53.73287 9653 ft 244 kts 238°
2026-05-07 18:15 12.49130 53.71841 10209 ft 246 kts 237°
2026-05-07 18:15 12.48166 53.70379 10725 ft 249 kts 237°
2026-05-07 18:15 12.47194 53.68903 11239 ft 251 kts 237°
2026-05-07 18:16 12.46214 53.67412 11731 ft 254 kts 237°
2026-05-07 18:16 12.45220 53.65904 12204 ft 256 kts 237°
2026-05-07 18:16 12.44230 53.64402 12670 ft 259 kts 236°
2026-05-07 18:16 12.43221 53.62866 13137 ft 264 kts 236°
2026-05-07 18:17 12.42199 53.61318 13933 ft 262 kts 236°
2026-05-07 18:17 12.41171 53.59757 14563 ft 266 kts 236°
2026-05-07 18:17 12.40130 53.58177 15213 ft 269 kts 235°
2026-05-07 18:17 12.39079 53.56581 15853 ft 272 kts 236°
2026-05-07 18:18 12.38015 53.54969 16491 ft 275 kts 235°
2026-05-07 18:18 12.36939 53.53338 17145 ft 278 kts 236°
2026-05-07 18:18 12.35852 53.51688 17768 ft 281 kts 235°
2026-05-07 18:18 12.34749 53.50015 18364 ft 285 kts 235°
2026-05-07 18:19 12.33636 53.48327 18901 ft 287 kts 235°
2026-05-07 18:19 12.32513 53.46625 19436 ft 290 kts 235°
2026-05-07 18:19 12.31376 53.44905 19985 ft 292 kts 235°
2026-05-07 18:19 12.30235 53.43172 20530 ft 295 kts 235°
2026-05-07 18:20 12.29081 53.41427 21068 ft 298 kts 235°
2026-05-07 18:20 12.27933 53.39688 21605 ft 300 kts 234°
2026-05-07 18:20 12.26760 53.37910 22137 ft 303 kts 235°
2026-05-07 18:20 12.25576 53.36120 22671 ft 306 kts 234°
2026-05-07 18:21 12.24381 53.34310 23196 ft 309 kts 234°
2026-05-07 18:21 12.23173 53.32482 23677 ft 311 kts 234°
2026-05-07 18:21 12.21959 53.30646 24144 ft 312 kts 234°
2026-05-07 18:21 12.20741 53.28800 24619 ft 313 kts 234°
2026-05-07 18:22 12.19518 53.26953 25087 ft 315 kts 234°
2026-05-07 18:22 12.18701 53.25716 25393 ft 316 kts 234°
2026-05-07 18:22 12.17048 53.23216 26015 ft 318 kts 234°
2026-05-07 18:22 12.15804 53.21338 26480 ft 320 kts 234°
2026-05-07 18:23 12.14550 53.19442 26935 ft 322 kts 234°
2026-05-07 18:23 12.13308 53.17564 27388 ft 324 kts 234°
2026-05-07 18:23 12.12042 53.15653 27848 ft 325 kts 234°
2026-05-07 18:23 12.10770 53.13732 28315 ft 327 kts 234°
2026-05-07 18:24 12.09501 53.11815 28879 ft 324 kts 234°
2026-05-07 18:24 12.08241 53.09910 29468 ft 322 kts 234°
2026-05-07 18:24 12.06991 53.08024 30030 ft 320 kts 234°
2026-05-07 18:24 12.05747 53.06147 30498 ft 318 kts 234°
2026-05-07 18:25 12.04510 53.04280 30975 ft 315 kts 234°
2026-05-07 18:25 12.03282 53.02427 31447 ft 314 kts 234°
2026-05-07 18:25 12.02061 53.00585 31924 ft 311 kts 234°
2026-05-07 18:25 12.00866 52.98784 32390 ft 309 kts 234°
2026-05-07 18:26 11.99660 52.96965 32859 ft 307 kts 234°
2026-05-07 18:26 11.98463 52.95161 33327 ft 305 kts 234°
2026-05-07 18:26 11.97276 52.93371 33750 ft 305 kts 234°
2026-05-07 18:26 11.96064 52.91547 33850 ft 316 kts 234°
2026-05-07 18:27 11.94803 52.89649 33874 ft 329 kts 234°
2026-05-07 18:27 11.93498 52.87683 33880 ft 341 kts 234°
2026-05-07 18:27 11.92145 52.85643 33884 ft 353 kts 234°
2026-05-07 18:28 11.89304 52.81367 33885 ft 374 kts 234°
2026-05-07 18:28 11.86312 52.76860 33882 ft 390 kts 234°
2026-05-07 18:29 11.83245 52.72250 33883 ft 399 kts 234°
2026-05-07 18:29 11.80095 52.67513 33882 ft 407 kts 234°
2026-05-07 18:30 11.76891 52.62697 33885 ft 413 kts 234°
2026-05-07 18:30 11.73648 52.57825 33882 ft 417 kts 235°
2026-05-07 18:31 11.70370 52.52904 33882 ft 421 kts 234°
2026-05-07 18:31 11.67070 52.47953 33881 ft 423 kts 234°
2026-05-07 18:32 11.63768 52.43000 33879 ft 425 kts 234°
2026-05-07 18:32 11.60430 52.37995 33876 ft 427 kts 234°
2026-05-07 18:33 11.57082 52.32978 33878 ft 428 kts 234°
2026-05-07 18:33 11.53722 52.27946 33884 ft 429 kts 234°
2026-05-07 18:34 11.50358 52.22910 33882 ft 430 kts 234°
2026-05-07 18:34 11.46986 52.17865 33882 ft 431 kts 234°
2026-05-07 18:35 11.43612 52.12821 33883 ft 431 kts 234°
2026-05-07 18:35 11.40233 52.07770 33883 ft 432 kts 234°
2026-05-07 18:36 11.36851 52.02717 33883 ft 432 kts 234°
2026-05-07 18:36 11.33463 51.97659 33884 ft 432 kts 234°
2026-05-07 18:37 11.30646 51.93453 33885 ft 432 kts 234°
2026-05-07 18:37 11.27256 51.88397 33882 ft 432 kts 234°
2026-05-07 18:38 11.23867 51.83342 33883 ft 432 kts 234°
2026-05-07 18:38 11.20468 51.78277 33883 ft 432 kts 234°
2026-05-07 18:39 11.17076 51.73224 33885 ft 432 kts 234°
2026-05-07 18:39 11.13679 51.68165 33886 ft 432 kts 234°
2026-05-07 18:40 11.10285 51.63113 33883 ft 433 kts 234°
2026-05-07 18:40 11.06905 51.58085 33881 ft 433 kts 234°
2026-05-07 18:41 11.03497 51.53019 33883 ft 433 kts 234°
2026-05-07 18:41 11.00095 51.47964 33884 ft 433 kts 234°
2026-05-07 18:42 10.96696 51.42917 33883 ft 433 kts 234°
2026-05-07 18:42 10.93289 51.37858 33885 ft 433 kts 234°
2026-05-07 18:43 10.89903 51.32831 33889 ft 433 kts 234°
2026-05-07 18:43 10.86496 51.27777 33893 ft 433 kts 234°
2026-05-07 18:44 10.83086 51.22721 33892 ft 433 kts 234°
2026-05-07 18:44 10.79678 51.17671 33891 ft 433 kts 234°
2026-05-07 18:45 10.76270 51.12625 33900 ft 433 kts 234°
2026-05-07 18:45 10.72864 51.07583 33896 ft 433 kts 234°
2026-05-07 18:46 10.69454 51.02535 33898 ft 433 kts 234°
2026-05-07 18:46 10.66046 50.97494 33900 ft 433 kts 234°
2026-05-07 18:47 10.62635 50.92448 33900 ft 432 kts 234°
2026-05-07 18:47 10.59225 50.87411 33904 ft 432 kts 234°
2026-05-07 18:48 10.55833 50.82403 33904 ft 432 kts 234°
2026-05-07 18:48 10.52421 50.77364 33903 ft 432 kts 234°
2026-05-07 18:49 10.49008 50.72327 33906 ft 433 kts 234°
2026-05-07 18:49 10.45596 50.67291 33907 ft 433 kts 234°
2026-05-07 18:50 10.42175 50.62250 33906 ft 433 kts 234°
2026-05-07 18:50 10.38762 50.57221 33909 ft 433 kts 234°
2026-05-07 18:51 10.35340 50.52180 33914 ft 433 kts 234°
2026-05-07 18:51 10.31942 50.47177 33913 ft 433 kts 234°
2026-05-07 18:52 10.28520 50.42138 33915 ft 433 kts 234°
2026-05-07 18:52 10.25098 50.37104 33915 ft 433 kts 234°
2026-05-07 18:53 10.21676 50.32071 33920 ft 433 kts 234°
2026-05-07 18:53 10.18255 50.27043 33914 ft 433 kts 234°
2026-05-07 18:54 10.14854 50.22048 33916 ft 433 kts 234°
2026-05-07 18:54 10.11433 50.17022 33922 ft 432 kts 234°
2026-05-07 18:55 10.08015 50.12004 33923 ft 432 kts 234°
2026-05-07 18:55 10.04591 50.06984 33924 ft 432 kts 233°
2026-05-07 18:56 10.01173 50.01967 33931 ft 432 kts 233°
2026-05-07 18:56 9.97754 49.96956 33923 ft 432 kts 234°
2026-05-07 18:57 9.94337 49.91950 33933 ft 431 kts 234°
2026-05-07 18:57 9.90919 49.86944 33928 ft 431 kts 234°
2026-05-07 18:58 9.87502 49.81939 33931 ft 431 kts 234°
2026-05-07 18:58 9.84107 49.76970 33939 ft 432 kts 234°
2026-05-07 18:59 9.80688 49.71970 33939 ft 432 kts 234°
2026-05-07 18:59 9.77267 49.66966 33940 ft 432 kts 234°
2026-05-07 19:00 9.73841 49.61961 33939 ft 432 kts 234°
2026-05-07 19:00 9.70415 49.56954 33940 ft 432 kts 234°
2026-05-07 19:01 9.66989 49.51949 33941 ft 432 kts 234°
2026-05-07 19:01 9.63557 49.46938 33943 ft 432 kts 234°
2026-05-07 19:02 9.60124 49.41931 33944 ft 432 kts 234°
2026-05-07 19:02 9.56695 49.36928 33939 ft 432 kts 234°
2026-05-07 19:03 9.53267 49.31928 33939 ft 432 kts 234°
2026-05-07 19:03 9.49856 49.26960 33939 ft 432 kts 234°
2026-05-07 19:04 9.46426 49.21962 33941 ft 432 kts 234°
2026-05-07 19:04 9.42996 49.16966 33945 ft 432 kts 234°
2026-05-07 19:05 9.39565 49.11970 33941 ft 432 kts 234°
2026-05-07 19:05 9.36128 49.06970 33938 ft 432 kts 234°
2026-05-07 19:06 9.32696 49.01978 33943 ft 432 kts 234°
2026-05-07 19:06 9.27550 48.94495 33943 ft 431 kts 234°
2026-05-07 19:07 9.24140 48.89543 33940 ft 431 kts 234°
2026-05-07 19:07 9.20710 48.84561 33934 ft 431 kts 234°
2026-05-07 19:08 9.17286 48.79588 33933 ft 431 kts 234°
2026-05-07 19:08 9.13856 48.74609 33929 ft 430 kts 234°
2026-05-07 19:09 9.10430 48.69639 33925 ft 430 kts 234°
2026-05-07 19:09 9.07008 48.64676 33924 ft 430 kts 234°
2026-05-07 19:10 9.03608 48.59747 33921 ft 430 kts 235°
2026-05-07 19:10 9.00187 48.54790 33915 ft 429 kts 235°